This is the latest recevied weather packets stored in our database for station/object KI6SYE. If no packets are shown the sender has not sent any weather packets the latest 10 day(s).
| Time | Temp. | Humidity | Pressure | Rain* | Wind** | Luminosity | Snow |
|---|---|---|---|---|---|---|---|
| 1787869056 | 27.22° C | 83% | 1010.3 hPa | 0 mm | - | 194 W/m² | - |
| 1787868754 | 27.22° C | 82% | 1010.2 hPa | 0 mm | - | 266 W/m² | - |
| 1787868454 | 27.78° C | 79% | 1010.3 hPa | 0 mm | - | 551 W/m² | - |
| 1787868152 | 27.22° C | 78% | 1010.4 hPa | 0 mm | - | 399 W/m² | - |
| 1787867848 | 27.22° C | 78% | 1010.4 hPa | 0 mm | - | 330 W/m² | - |
| 1787867543 | 26.67° C | 81% | 1010.6 hPa | 0 mm | - | 298 W/m² | - |
| 1787867239 | 26.67° C | 83% | 1010.7 hPa | 0 mm | - | 207 W/m² | - |
| 1787866935 | 26.67° C | 83% | 1011.1 hPa | 0 mm | - | 210 W/m² | - |
| 1787866630 | 26.67° C | 83% | 1011 hPa | 0 mm | - | 189 W/m² | - |
| 1787866327 | 27.22° C | 81% | 1011.1 hPa | 0 mm | - | 226 W/m² | - |
| 1787866023 | 28.33° C | 76% | 1011 hPa | 0 mm | - | 297 W/m² | - |
| 1787865718 | 28.33° C | 73% | 1010.8 hPa | 0 mm | - | 545 W/m² | - |
| 1787865417 | 28.33° C | 73% | 1010.9 hPa | 0 mm | - | 662 W/m² | - |
| 1787865112 | 27.22° C | 75% | 1011 hPa | 0 mm | - | 491 W/m² | - |
| 1787864808 | 27.22° C | 78% | 1010.9 hPa | 0 mm | - | 339 W/m² | - |
| 1787864508 | 27.22° C | 80% | 1010.7 hPa | 0 mm | - | 414 W/m² | - |
| 1787864204 | 27.78° C | 77% | 1010.9 hPa | 0 mm | - | 279 W/m² | - |
| 1787863898 | 28.33° C | 74% | 1010.9 hPa | 0 mm | - | 267 W/m² | - |
| 1787863596 | 28.33° C | 73% | 1010.9 hPa | 0 mm | - | 278 W/m² | - |
| 1787863291 | 27.78° C | 73% | 1011.1 hPa | 0 mm | - | 327 W/m² | - |
| 1787862987 | 28.33° C | 74% | 1011 hPa | 0 mm | - | 396 W/m² | - |
| 1787862676 | 28.89° C | 73% | 1011.4 hPa | 0 mm | - | 658 W/m² | - |
| 1787862371 | 28.33° C | 73% | 1011.2 hPa | 0 mm | - | 646 W/m² | - |
| 1787862067 | 27.78° C | 74% | 1011.3 hPa | 0 mm | - | 413 W/m² | - |
| 1787861766 | 27.78° C | 72% | 1011 hPa | 0 mm | - | 339 W/m² | - |
* Rain latest hour (hover to see other rain measurements)
** Current wind speed in m/s (hover to see current wind gust speed)